| time (UTC) | temp F | wind direction | speed MPH | gust MPH | rain 1hr in | rain 24hr in | rain mn in | humidity % | barometer mb |
| 20260904083704 | 71 | 284 | 0.0 | 3.0 | 0.00 | 1.45 | 0.00 | 97 | 1013.0 |
| 20260904083205 | 71 | 17 | 1.0 | 1.0 | 0.00 | 1.47 | 0.00 | 98 | 1013.0 |
| 20260904082705 | 71 | 301 | 0.0 | 1.0 | 0.00 | 1.50 | 0.00 | 99 | 1013.3 |
| 20260904082204 | 71 | 297 | 0.0 | 1.0 | 0.00 | 1.51 | 0.00 | 99 | 1013.1 |
| 20260904081203 | 71 | 327 | 1.0 | 3.0 | 0.00 | 1.60 | 0.00 | 99 | 1013.0 |
| 20260904080703 | 71 | 294 | 1.0 | 3.0 | 0.00 | 1.72 | 0.00 | 99 | 1012.8 |
| 20260904080204 | 71 | 296 | 0.0 | 1.0 | 0.00 | 1.84 | 0.00 | 99 | 1013.0 |
| 20260904075704 | 71 | 310 | 0.0 | 3.0 | 0.00 | 1.89 | 0.00 | 99 | 1013.0 |
| 20260904075203 | 72 | 270 | 0.0 | 3.0 | 0.00 | 2.06 | 0.00 | 99 | 1012.9 |
| 20260904074704 | 72 | 264 | 1.0 | 1.0 | 0.00 | 2.11 | 0.00 | 99 | 1013.1 |
| 20260904073704 | 73 | 322 | 0.0 | 1.0 | 0.00 | 2.11 | 0.00 | 99 | 1013.2 |
| 20260904073204 | 73 | 322 | 0.0 | 0.0 | 0.00 | 2.11 | 0.00 | 99 | 1013.1 |
| 20260904072704 | 73 | 322 | 0.0 | 0.0 | 0.00 | 2.11 | 0.00 | 99 | 1013.0 |
| 20260904072204 | 73 | 322 | 0.0 | 0.0 | 0.00 | 2.11 | 0.00 | 99 | 1013.0 |
| 20260904071703 | 73 | 322 | 0.0 | 0.0 | 0.00 | 2.11 | 0.00 | 99 | 1013.0 |
| 20260904071204 | 73 | 322 | 0.0 | 0.0 | 0.00 | 2.12 | 0.00 | 99 | 1012.7 |
| 20260904065703 | 73 | 322 | 0.0 | 0.0 | 0.00 | 2.17 | 0.00 | 99 | 1012.4 |
| 20260904065204 | 73 | 322 | 0.0 | 0.0 | 0.00 | 2.17 | 0.00 | 99 | 1012.3 |
| 20260904064703 | 73 | 322 | 0.0 | 0.0 | 0.00 | 2.17 | 0.00 | 99 | 1012.1 |
| 20260904064205 | 73 | 322 | 0.0 | 0.0 | 0.00 | 2.17 | 0.00 | 99 | 1012.0 |
| 20260904063704 | 73 | 322 | 0.0 | 0.0 | 0.00 | 2.17 | 0.00 | 99 | 1011.8 |
| 20260904062703 | 73 | 322 | 0.0 | 0.0 | 0.00 | 2.17 | 0.00 | 99 | 1011.9 |
| 20260904062205 | 73 | 321 | 0.0 | 0.0 | 0.00 | 2.17 | 0.00 | 99 | 1011.7 |
| 20260904061703 | 73 | 321 | 0.0 | 0.0 | 0.00 | 2.17 | 0.00 | 99 | 1011.7 |
| 20260904061204 | 73 | 322 | 0.0 | 1.0 | 0.00 | 2.17 | 0.00 | 99 | 1011.6 |
| 20260904060704 | 73 | 322 | 0.0 | 1.0 | 0.00 | 2.17 | 0.00 | 99 | 1011.6 |
| 20260904060203 | 73 | 322 | 0.0 | 0.0 | 0.00 | 2.17 | 0.00 | 99 | 1011.8 |
| 20260904055705 | 73 | 321 | 0.0 | 1.0 | 0.00 | 2.17 | 0.00 | 99 | 1012.1 |
| 20260904055203 | 73 | 321 | 0.0 | 0.0 | 0.00 | 2.17 | 0.00 | 99 | 1012.2 |
| 20260904054704 | 73 | 331 | 0.0 | 3.0 | 0.00 | 2.17 | 0.00 | 99 | 1012.5 |
| 20260904054203 | 73 | 312 | 0.0 | 0.0 | 0.00 | 2.18 | 0.00 | 99 | 1012.6 |
| 20260904053704 | 73 | 312 | 0.0 | 0.0 | 0.00 | 2.20 | 0.00 | 99 | 1012.8 |
| 20260904053205 | 73 | 312 | 0.0 | 0.0 | 0.00 | 2.30 | 0.00 | 99 | 1012.8 |
| 20260904052704 | 73 | 312 | 0.0 | 0.0 | 0.00 | 2.48 | 0.00 | 99 | 1012.8 |
| 20260904051705 | 73 | 312 | 0.0 | 0.0 | 0.00 | 2.59 | 0.00 | 99 | 1012.9 |
| 20260904051204 | 73 | 312 | 0.0 | 0.0 | 0.00 | 2.60 | 0.00 | 99 | 1012.9 |
| 20260904050704 | 73 | 312 | 0.0 | 0.0 | 0.00 | 2.60 | 0.00 | 99 | 1012.7 |
| 20260904050204 | 73 | 311 | 0.0 | 0.0 | 0.00 | 2.60 | 0.00 | 99 | 1012.6 |
| 20260904045704 | 73 | 311 | 0.0 | 0.0 | 1.30 | 2.60 | 0.00 | 99 | 1012.5 |
| 20260904044703 | 73 | 311 | 0.0 | 0.0 | 1.30 | 2.60 | 0.00 | 99 | 1012.5 |
| 20260904044204 | 73 | 311 | 0.0 | 0.0 | 1.30 | 2.60 | 0.00 | 99 | 1012.7 |
| 20260904043704 | 73 | 311 | 0.0 | 0.0 | 1.30 | 2.60 | 0.00 | 99 | 1012.7 |
| 20260904043204 | 73 | 311 | 0.0 | 0.0 | 1.30 | 2.60 | 0.00 | 99 | 1012.6 |
| 20260904042705 | 73 | 311 | 0.0 | 0.0 | 1.30 | 2.60 | 0.00 | 99 | 1012.8 |
| 20260904042205 | 73 | 311 | 0.0 | 1.0 | 1.30 | 2.60 | 0.00 | 99 | 1013.0 |
| 20260904041704 | 73 | 311 | 1.0 | 1.0 | 1.30 | 2.60 | 0.00 | 99 | 1013.1 |
| 20260904041204 | 73 | 311 | 1.0 | 1.0 | 1.30 | 2.60 | 0.00 | 99 | 1013.2 |
| 20260904040705 | 73 | 311 | 0.0 | 1.0 | 1.30 | 2.60 | 0.00 | 99 | 1013.3 |
| 20260904035704 | 73 | 311 | 0.0 | 0.0 | 0.00 | 1.48 | 1.30 | 99 | 1013.4 |
| 20260904035204 | 73 | 311 | 1.0 | 1.0 | 0.00 | 1.48 | 1.30 | 99 | 1013.6 |
| 20260904034704 | 74 | 137 | 0.0 | 0.0 | 0.00 | 1.49 | 1.30 | 99 | 1013.6 |
| 20260904034204 | 73 | 137 | 0.0 | 0.0 | 0.00 | 1.49 | 1.30 | 99 | 1013.4 |
| 20260904033704 | 73 | 137 | 0.0 | 0.0 | 0.00 | 1.49 | 1.30 | 99 | 1013.5 |
| 20260904033204 | 73 | 138 | 0.0 | 0.0 | 0.00 | 1.49 | 1.30 | 99 | 1013.6 |
| 20260904032704 | 73 | 138 | 0.0 | 0.0 | 0.00 | 1.49 | 1.30 | 99 | 1013.7 |
| 20260904032204 | 73 | 138 | 0.0 | 0.0 | 0.00 | 1.49 | 1.30 | 99 | 1013.5 |
| 20260904031704 | 73 | 138 | 0.0 | 0.0 | 0.00 | 1.49 | 1.30 | 99 | 1013.5 |
| 20260904030703 | 73 | 138 | 0.0 | 0.0 | 0.00 | 1.49 | 1.30 | 99 | 1013.9 |
| 20260904030204 | 73 | 138 | 0.0 | 1.0 | 0.00 | 1.49 | 1.30 | 99 | 1014.0 |
| 20260904025703 | 74 | 137 | 0.0 | 0.0 | 0.00 | 1.49 | 1.30 | 99 | 1014.0 |
| 20260904024704 | 74 | 138 | 0.0 | 0.0 | 0.00 | 1.49 | 1.30 | 99 | 1014.0 |
| 20260904024204 | 74 | 137 | 0.0 | 0.0 | 0.00 | 1.49 | 1.30 | 99 | 1013.9 |
| 20260904023705 | 73 | 137 | 0.0 | 0.0 | 0.00 | 1.49 | 1.30 | 99 | 1014.0 |
| 20260904023204 | 73 | 137 | 0.0 | 0.0 | 0.00 | 1.49 | 1.30 | 99 | 1013.9 |
| 20260904022703 | 74 | 137 | 0.0 | 0.0 | 0.00 | 1.49 | 1.30 | 99 | 1014.0 |
| 20260904021705 | 73 | 138 | 1.0 | 1.0 | 0.00 | 1.49 | 1.30 | 99 | 1013.9 |
| 20260904021204 | 73 | 137 | 0.0 | 0.0 | 0.00 | 1.49 | 1.30 | 99 | 1013.7 |
| 20260904020703 | 74 | 137 | 0.0 | 0.0 | 0.00 | 1.49 | 1.30 | 99 | 1013.6 |
| 20260904020205 | 74 | 137 | 0.0 | 0.0 | 0.00 | 1.49 | 1.30 | 99 | 1013.9 |
| 20260904015704 | 74 | 137 | 0.0 | 0.0 | 0.00 | 1.49 | 1.30 | 99 | 1013.9 |
| 20260904015203 | 74 | 137 | 0.0 | 1.0 | 0.00 | 1.49 | 1.30 | 99 | 1013.7 |
| 20260904014705 | 74 | 137 | 0.0 | 0.0 | 0.00 | 1.49 | 1.30 | 99 | 1013.6 |
| 20260904014203 | 74 | 137 | 0.0 | 0.0 | 0.00 | 1.49 | 1.30 | 99 | 1013.9 |
| 20260904013704 | 74 | 137 | 0.0 | 0.0 | 0.00 | 1.49 | 1.30 | 99 | 1013.8 |
| 20260904012204 | 74 | 137 | 0.0 | 0.0 | 0.00 | 1.49 | 1.30 | 99 | 1013.9 |
| 20260904011705 | 74 | 138 | 0.0 | 0.0 | 0.00 | 1.49 | 1.30 | 99 | 1014.1 |
| 20260904011205 | 74 | 138 | 0.0 | 0.0 | 0.00 | 1.49 | 1.30 | 99 | 1014.2 |
| 20260904010703 | 74 | 138 | 0.0 | 0.0 | 0.00 | 1.49 | 1.30 | 99 | 1014.3 |
| 20260904010204 | 74 | 138 | 0.0 | 0.0 | 0.00 | 1.49 | 1.30 | 99 | 1014.5 |
| 20260904005704 | 74 | 138 | 0.0 | 0.0 | 0.00 | 1.49 | 1.30 | 99 | 1014.5 |
| 20260904005203 | 75 | 138 | 0.0 | 0.0 | 0.00 | 1.49 | 1.30 | 99 | 1014.5 |
| 20260904004704 | 75 | 138 | 0.0 | 0.0 | 0.00 | 1.49 | 1.30 | 99 | 1014.6 |
| 20260904004203 | 75 | 137 | 0.0 | 0.0 | 0.00 | 1.49 | 1.30 | 99 | 1014.4 |
| 20260904003705 | 75 | 137 | 0.0 | 0.0 | 0.00 | 1.49 | 1.30 | 99 | 1014.1 |
| 20260904003203 | 75 | 138 | 0.0 | 0.0 | 0.00 | 1.49 | 1.30 | 99 | 1014.4 |
| 20260904002704 | 75 | 138 | 0.0 | 0.0 | 0.00 | 1.49 | 1.30 | 99 | 1014.4 |
| 20260904002203 | 75 | 138 | 0.0 | 0.0 | 0.00 | 1.49 | 1.30 | 99 | 1014.1 |
| 20260904001704 | 75 | 138 | 0.0 | 0.0 | 0.00 | 1.49 | 1.30 | 98 | 1014.2 |
| 20260904001204 | 76 | 138 | 0.0 | 0.0 | 0.00 | 1.49 | 1.30 | 98 | 1014.2 |
| 20260904000704 | 76 | 138 | 0.0 | 0.0 | 0.00 | 1.49 | 1.30 | 98 | 1014.4 |
| 20260904000204 | 76 | 138 | 0.0 | 0.0 | 0.00 | 1.49 | 1.30 | 98 | 1014.0 |
| 20260903235704 | 76 | 138 | 0.0 | 0.0 | 0.00 | 1.49 | 1.30 | 97 | 1014.0 |
| 20260903235203 | 76 | 138 | 0.0 | 0.0 | 0.00 | 1.49 | 1.30 | 97 | 1013.7 |
| 20260903234203 | 77 | 138 | 0.0 | 0.0 | 0.00 | 1.49 | 1.30 | 95 | 1013.5 |
| 20260903233703 | 77 | 138 | 0.0 | 0.0 | 0.00 | 1.49 | 1.30 | 95 | 1013.5 |
| 20260903233203 | 77 | 138 | 0.0 | 0.0 | 0.00 | 1.49 | 1.30 | 94 | 1013.8 |
| 20260903232705 | 78 | 138 | 0.0 | 0.0 | 0.00 | 1.49 | 1.30 | 94 | 1013.9 |
| 20260903232205 | 78 | 138 | 0.0 | 0.0 | 0.00 | 1.49 | 1.30 | 93 | 1013.9 |
| 20260903231703 | 79 | 138 | 0.0 | 0.0 | 0.00 | 1.49 | 1.30 | 92 | 1013.9 |
| 20260903231205 | 79 | 138 | 0.0 | 0.0 | 0.00 | 1.49 | 1.30 | 91 | 1013.9 |
| 20260903230704 | 79 | 138 | 0.0 | 0.0 | 0.00 | 1.49 | 1.30 | 90 | 1013.9 |
| 20260903225704 | 80 | 316 | 0.0 | 0.0 | 0.00 | 1.49 | 1.30 | 89 | 1013.7 |
| 20260903225203 | 80 | 294 | 0.0 | 0.0 | 0.00 | 1.49 | 1.30 | 88 | 1013.5 |
| 20260903224205 | 81 | 294 | 0.0 | 0.0 | 0.00 | 1.49 | 1.30 | 86 | 1013.6 |
| 20260903223705 | 81 | 296 | 0.0 | 0.0 | 0.00 | 1.49 | 1.30 | 86 | 1013.6 |
| 20260903223204 | 82 | 296 | 0.0 | 0.0 | 0.00 | 1.49 | 1.30 | 85 | 1013.4 |
| 20260903222704 | 82 | 296 | 0.0 | 0.0 | 0.00 | 1.49 | 1.30 | 85 | 1013.5 |
| 20260903222204 | 82 | 293 | 0.0 | 1.0 | 0.00 | 1.49 | 1.30 | 84 | 1013.4 |
| 20260903221203 | 83 | 302 | 0.0 | 0.0 | 0.00 | 1.49 | 1.30 | 83 | 1013.7 |
| 20260903220704 | 83 | 291 | 0.0 | 1.0 | 0.00 | 1.49 | 1.30 | 83 | 1013.6 |
| 20260903220204 | 83 | 291 | 0.0 | 1.0 | 0.00 | 1.49 | 1.30 | 82 | 1013.4 |
| 20260903215705 | 83 | 289 | 0.0 | 3.0 | 0.00 | 1.49 | 1.30 | 82 | 1013.3 |
| 20260903214704 | 84 | 267 | 1.0 | 5.0 | 0.00 | 1.49 | 1.30 | 81 | 1013.3 |
| 20260903214205 | 84 | 282 | 1.0 | 3.0 | 0.00 | 1.49 | 1.30 | 81 | 1013.4 |
| 20260903213705 | 84 | 279 | 1.0 | 3.0 | 0.00 | 1.49 | 1.30 | 81 | 1013.2 |
| 20260903213205 | 84 | 291 | 0.0 | 1.0 | 0.00 | 1.49 | 1.30 | 82 | 1013.1 |
| 20260903212704 | 84 | 288 | 1.0 | 3.0 | 0.00 | 1.49 | 1.30 | 79 | 1013.0 |
| 20260903211703 | 84 | 290 | 1.0 | 5.0 | 0.00 | 1.49 | 1.30 | 79 | 1012.9 |
| 20260903211204 | 84 | 293 | 1.0 | 5.0 | 0.00 | 1.49 | 1.30 | 78 | 1013.0 |
| 20260903210205 | 85 | 288 | 1.0 | 5.0 | 0.00 | 1.49 | 1.30 | 78 | 1012.8 |
| 20260903205703 | 84 | 304 | 0.0 | 3.0 | 0.00 | 1.49 | 1.30 | 78 | 1013.1 |
| 20260903205204 | 84 | 292 | 0.0 | 3.0 | 0.00 | 1.49 | 1.30 | 79 | 1013.3 |
| 20260903204705 | 84 | 283 | 1.0 | 3.0 | 0.00 | 1.49 | 1.30 | 79 | 1013.3 |
| 20260903204204 | 84 | 283 | 1.0 | 5.0 | 0.00 | 1.49 | 1.30 | 78 | 1013.4 |
| 20260903203705 | 84 | 292 | 1.0 | 8.0 | 0.00 | 1.49 | 1.30 | 78 | 1013.3 |
| 20260903203205 | 85 | 287 | 1.0 | 7.0 | 0.00 | 1.49 | 1.30 | 76 | 1013.3 |
| 20260903201703 | 86 | 288 | 1.0 | 3.0 | 0.00 | 1.49 | 1.30 | 72 | 1013.4 |
| 20260903201204 | 86 | 292 | 1.0 | 5.0 | 0.00 | 1.49 | 1.30 | 74 | 1013.6 |
| 20260903195704 | 86 | 341 | 1.0 | 8.0 | 0.00 | 1.49 | 1.30 | 76 | 1013.6 |
| 20260903195203 | 86 | 295 | 1.0 | 7.0 | 0.00 | 1.49 | 1.30 | 76 | 1013.6 |
| 20260903194703 | 86 | 357 | 2.0 | 7.0 | 0.00 | 1.49 | 1.30 | 74 | 1013.6 |
| 20260903193704 | 85 | 287 | 2.0 | 7.0 | 0.00 | 1.49 | 1.30 | 77 | 1013.8 |
| 20260903193203 | 86 | 292 | 2.0 | 7.0 | 0.00 | 1.49 | 1.30 | 77 | 1013.7 |
| 20260903192704 | 87 | 239 | 1.0 | 5.0 | 0.00 | 1.49 | 1.30 | 77 | 1014.0 |
| 20260903192205 | 87 | 286 | 1.0 | 5.0 | 0.00 | 1.49 | 1.30 | 74 | 1013.8 |
| 20260903191703 | 89 | 230 | 1.0 | 5.0 | 0.00 | 1.49 | 1.30 | 73 | 1014.0 |
| 20260903191203 | 88 | 313 | 1.0 | 3.0 | 0.00 | 1.49 | 1.30 | 75 | 1013.9 |
| 20260903190704 | 87 | 266 | 1.0 | 3.0 | 0.00 | 1.49 | 1.30 | 75 | 1014.3 |
| 20260903190203 | 87 | 300 | 0.0 | 5.0 | 0.00 | 1.49 | 1.30 | 74 | 1014.1 |
| 20260903185204 | 87 | 288 | 2.0 | 7.0 | 0.00 | 1.49 | 1.30 | 75 | 1014.5 |
| 20260903184704 | 87 | 268 | 1.0 | 5.0 | 0.00 | 1.49 | 1.30 | 77 | 1014.4 |
| 20260903184204 | 85 | 308 | 1.0 | 8.0 | 0.00 | 1.49 | 1.30 | 79 | 1014.4 |
| 20260903183204 | 86 | 251 | 4.0 | 8.0 | 0.00 | 1.49 | 1.30 | 77 | 1014.5 |
| 20260903182203 | 86 | 271 | 1.0 | 7.0 | 0.00 | 1.49 | 1.30 | 79 | 1014.5 |
| 20260903181704 | 86 | 229 | 1.0 | 5.0 | 0.00 | 1.49 | 1.30 | 81 | 1014.5 |
| 20260903181204 | 85 | 276 | 2.0 | 8.0 | 0.00 | 1.49 | 1.30 | 78 | 1014.5 |
| 20260903180704 | 85 | 286 | 0.0 | 7.0 | 0.00 | 1.49 | 1.30 | 82 | 1014.6 |
| 20260903175704 | 84 | 272 | 1.0 | 8.0 | 0.00 | 1.51 | 1.30 | 79 | 1014.9 |
| 20260903175204 | 84 | 273 | 5.0 | 9.0 | 0.00 | 1.52 | 1.30 | 78 | 1014.7 |
| 20260903174704 | 84 | 238 | 3.0 | 9.0 | 0.00 | 1.53 | 1.30 | 79 | 1015.0 |
| 20260903174203 | 84 | 278 | 2.0 | 7.0 | 0.00 | 1.54 | 1.30 | 80 | 1014.8 |
| 20260903173704 | 84 | 281 | 2.0 | 5.0 | 0.00 | 1.56 | 1.30 | 78 | 1014.9 |
| 20260903173203 | 83 | 264 | 2.0 | 7.0 | 0.00 | 1.57 | 1.30 | 79 | 1014.9 |
| 20260903172703 | 83 | 280 | 2.0 | 7.0 | 0.00 | 1.58 | 1.30 | 79 | 1014.9 |
| 20260903172203 | 83 | 289 | 1.0 | 5.0 | 0.00 | 1.59 | 1.30 | 80 | 1014.9 |
| 20260903171704 | 84 | 269 | 2.0 | 9.0 | 0.00 | 1.60 | 1.30 | 82 | 1015.0 |
| 20260903170704 | 83 | 285 | 0.0 | 5.0 | 0.00 | 1.64 | 1.30 | 82 | 1015.3 |
| 20260903170204 | 82 | 284 | 2.0 | 7.0 | 0.00 | 1.65 | 1.30 | 82 | 1015.4 |
| 20260903165703 | 82 | 263 | 0.0 | 8.0 | 0.00 | 1.66 | 1.30 | 83 | 1015.6 |
| 20260903164703 | 83 | 277 | 1.0 | 5.0 | 0.00 | 1.66 | 1.30 | 85 | 1015.7 |
| 20260903164203 | 84 | 298 | 3.0 | 5.0 | 0.00 | 1.66 | 1.30 | 83 | 1015.7 |
| 20260903163703 | 83 | 288 | 1.0 | 7.0 | 0.00 | 1.66 | 1.30 | 84 | 1015.7 |
| 20260903163203 | 82 | 267 | 2.0 | 8.0 | 0.00 | 1.66 | 1.30 | 85 | 1015.8 |
| 20260903162703 | 83 | 287 | 0.0 | 3.0 | 0.00 | 1.66 | 1.30 | 85 | 1015.8 |
| 20260903162203 | 83 | 240 | 2.0 | 3.0 | 0.00 | 1.66 | 1.30 | 86 | 1015.9 |
| 20260903161704 | 82 | 283 | 0.0 | 8.0 | 0.00 | 1.66 | 1.30 | 84 | 1015.9 |
| 20260903161203 | 82 | 279 | 0.0 | 7.0 | 0.00 | 1.66 | 1.30 | 88 | 1016.0 |
| 20260903160703 | 81 | 263 | 2.0 | 8.0 | 0.00 | 1.66 | 1.30 | 86 | 1016.1 |
| 20260903160203 | 82 | 276 | 2.0 | 8.0 | 0.00 | 1.66 | 1.30 | 86 | 1016.2 |
| 20260903155703 | 81 | 289 | 1.0 | 8.0 | 0.00 | 1.66 | 1.30 | 89 | 1016.2 |
| 20260903155203 | 81 | 274 | 1.0 | 7.0 | 0.00 | 1.66 | 1.30 | 89 | 1016.5 |
| 20260903154704 | 80 | 301 | 2.0 | 5.0 | 0.00 | 1.66 | 1.30 | 91 | 1016.7 |
| 20260903153702 | 80 | 260 | 1.0 | 8.0 | 0.00 | 1.66 | 1.30 | 90 | 1016.7 |
| 20260903153203 | 80 | 322 | 1.0 | 7.0 | 0.00 | 1.66 | 1.30 | 90 | 1016.8 |
| 20260903152703 | 82 | 280 | 1.0 | 7.0 | 0.00 | 1.66 | 1.30 | 88 | 1016.7 |
| 20260903151704 | 82 | 249 | 1.0 | 5.0 | 0.00 | 1.66 | 1.30 | 88 | 1016.7 |
| 20260903151204 | 82 | 291 | 1.0 | 7.0 | 0.00 | 1.66 | 1.30 | 89 | 1016.3 |
| 20260903150703 | 81 | 255 | 1.0 | 7.0 | 0.00 | 1.66 | 1.30 | 89 | 1016.5 |
| 20260903150203 | 81 | 249 | 1.0 | 5.0 | 0.00 | 1.66 | 1.30 | 89 | 1016.9 |
| 20260903145703 | 80 | 262 | 1.0 | 5.0 | 0.00 | 1.66 | 1.30 | 90 | 1017.0 |
| 20260903145203 | 79 | 289 | 0.0 | 3.0 | 0.00 | 1.66 | 1.30 | 91 | 1016.9 |
| 20260903144703 | 79 | 278 | 1.0 | 5.0 | 0.00 | 1.66 | 1.30 | 90 | 1016.9 |
| 20260903144203 | 79 | 286 | 1.0 | 3.0 | 0.00 | 1.66 | 1.30 | 92 | 1016.9 |
| 20260903143203 | 79 | 236 | 2.0 | 5.0 | 0.00 | 1.66 | 1.30 | 92 | 1016.6 |
| 20260903142704 | 79 | 286 | 0.0 | 1.0 | 0.00 | 1.66 | 1.30 | 95 | 1016.4 |
| 20260903142203 | 77 | 290 | 0.0 | 1.0 | 0.00 | 1.66 | 1.30 | 98 | 1016.5 |
| 20260903141203 | 76 | 285 | 1.0 | 3.0 | 0.00 | 1.66 | 1.30 | 99 | 1016.1 |
| 20260903140703 | 76 | 282 | 1.0 | 3.0 | 0.00 | 1.66 | 1.30 | 99 | 1016.0 |
| 20260903140203 | 74 | 271 | 2.0 | 9.0 | 0.00 | 1.66 | 1.30 | 99 | 1016.1 |
| 20260903135703 | 73 | 289 | 4.0 | 8.0 | 0.00 | 1.66 | 1.30 | 99 | 1016.1 |
| 20260903134703 | 74 | 286 | 0.0 | 7.0 | 0.00 | 1.66 | 1.30 | 99 | 1016.4 |
| 20260903133704 | 73 | 273 | 1.0 | 5.0 | 0.00 | 1.66 | 1.30 | 99 | 1016.2 |
| 20260903133207 | 73 | 287 | 1.0 | 9.0 | 0.00 | 1.66 | 1.30 | 99 | 1016.1 |
| 20260903132704 | 73 | 262 | 2.0 | 8.0 | 0.00 | 1.66 | 1.30 | 99 | 1016.2 |
| 20260903131703 | 74 | 281 | 0.0 | 8.0 | 0.00 | 1.66 | 1.30 | 99 | 1015.8 |
| 20260903131203 | 73 | 271 | 0.0 | 7.0 | 0.00 | 1.66 | 1.30 | 99 | 1016.0 |
| 20260903130703 | 74 | 268 | 3.0 | 7.0 | 0.00 | 1.66 | 1.30 | 99 | 1015.7 |
| 20260903130203 | 73 | 284 | 0.0 | 7.0 | 0.00 | 1.66 | 1.30 | 99 | 1015.9 |
| 20260903125704 | 73 | 253 | 2.0 | 7.0 | 0.00 | 1.66 | 1.30 | 99 | 1016.0 |
| 20260903125204 | 72 | 280 | 1.0 | 5.0 | 0.00 | 1.66 | 1.30 | 99 | 1016.1 |
| 20260903123703 | 72 | 282 | 0.0 | 3.0 | 0.01 | 1.66 | 1.30 | 99 | 1016.2 |
| 20260903122703 | 71 | 266 | 1.0 | 5.0 | 0.01 | 1.66 | 1.30 | 99 | 1015.9 |
| 20260903120204 | 69 | 292 | 0.0 | 1.0 | 0.01 | 1.66 | 1.30 | 99 | 1016.2 |
| 20260903115703 | 69 | 293 | 0.0 | 3.0 | 0.01 | 1.66 | 1.30 | 99 | 1016.2 |
| 20260903115203 | 69 | 291 | 1.0 | 3.0 | 0.01 | 1.66 | 1.30 | 99 | 1016.1 |
| 20260903114704 | 69 | 295 | 0.0 | 1.0 | 0.00 | 1.65 | 1.29 | 99 | 1015.9 |
| 20260903114204 | 68 | 268 | 0.0 | 0.0 | 0.00 | 1.65 | 1.29 | 99 | 1016.1 |
| 20260903113703 | 68 | 268 | 0.0 | 1.0 | 0.01 | 1.65 | 1.29 | 99 | 1015.9 |
| 20260903113204 | 68 | 268 | 1.0 | 3.0 | 0.01 | 1.65 | 1.29 | 99 | 1015.4 |
| 20260903112703 | 68 | 266 | 1.0 | 3.0 | 0.01 | 1.65 | 1.29 | 99 | 1016.0 |
| 20260903112203 | 68 | 294 | 0.0 | 0.0 | 0.01 | 1.65 | 1.29 | 99 | 1016.5 |
| 20260903111703 | 68 | 293 | 0.0 | 1.0 | 0.01 | 1.65 | 1.29 | 99 | 1016.6 |
| 20260903110704 | 68 | 287 | 0.0 | 0.0 | 0.01 | 1.65 | 1.29 | 99 | 1016.6 |
| 20260903110203 | 68 | 287 | 0.0 | 0.0 | 0.01 | 1.65 | 1.29 | 99 | 1016.6 |
| 20260903105704 | 68 | 287 | 0.0 | 0.0 | 0.01 | 1.65 | 1.29 | 99 | 1017.0 |
| 20260903105203 | 68 | 287 | 0.0 | 3.0 | 0.01 | 1.65 | 1.29 | 99 | 1017.4 |
| 20260903104703 | 68 | 292 | 0.0 | 1.0 | 0.01 | 1.65 | 1.29 | 99 | 1017.6 |
| 20260903104204 | 68 | 275 | 0.0 | 0.0 | 0.01 | 1.65 | 1.29 | 99 | 1017.6 |
| 20260903103703 | 68 | 275 | 0.0 | 0.0 | 0.00 | 1.64 | 1.28 | 99 | 1018.0 |
| 20260903103204 | 68 | 275 | 0.0 | 0.0 | 0.01 | 1.64 | 1.28 | 99 | 1017.6 |
| 20260903102703 | 68 | 275 | 0.0 | 0.0 | 0.01 | 1.64 | 1.28 | 99 | 1017.6 |
| 20260903102203 | 68 | 274 | 0.0 | 1.0 | 0.01 | 1.64 | 1.28 | 99 | 1017.3 |
| 20260903101704 | 68 | 273 | 0.0 | 1.0 | 0.02 | 1.64 | 1.28 | 99 | 1017.2 |
| 20260903101204 | 68 | 273 | 1.0 | 1.0 | 0.03 | 1.64 | 1.28 | 99 | 1017.1 |
| 20260903100703 | 68 | 273 | 0.0 | 0.0 | 0.04 | 1.64 | 1.28 | 99 | 1016.9 |
| 20260903100204 | 68 | 273 | 0.0 | 0.0 | 0.07 | 1.64 | 1.28 | 99 | 1017.2 |
| 20260903095704 | 68 | 273 | 0.0 | 0.0 | 0.08 | 1.64 | 1.28 | 99 | 1017.1 |
| 20260903095205 | 68 | 273 | 0.0 | 0.0 | 0.10 | 1.64 | 1.28 | 99 | 1017.2 |
| 20260903094205 | 68 | 273 | 0.0 | 0.0 | 0.12 | 1.64 | 1.28 | 99 | 1017.4 |
| 20260903093703 | 68 | 273 | 0.0 | 0.0 | 0.13 | 1.64 | 1.28 | 99 | 1017.1 |
| 20260903093204 | 68 | 273 | 0.0 | 1.0 | 0.14 | 1.63 | 1.27 | 99 | 1017.3 |
| 20260903092703 | 68 | 273 | 0.0 | 3.0 | 0.17 | 1.63 | 1.27 | 99 | 1017.4 |
| 20260903091704 | 68 | 302 | 0.0 | 1.0 | 0.19 | 1.62 | 1.26 | 99 | 1017.6 |
| 20260903090704 | 67 | 313 | 0.0 | 0.0 | 0.36 | 1.60 | 1.24 | 99 | 1017.9 |
| 20260903085703 | 67 | 290 | 0.0 | 0.0 | 0.49 | 1.56 | 1.20 | 99 | 1017.8 |
| 20260903085204 | 67 | 290 | 0.0 | 0.0 | 0.64 | 1.54 | 1.18 | 99 | 1017.9 |
| 20260903084704 | 67 | 290 | 0.0 | 0.0 | 0.68 | 1.53 | 1.17 | 99 | 1017.5 |
| 20260903084204 | 67 | 290 | 0.0 | 1.0 | 0.67 | 1.52 | 1.16 | 99 | 1017.6 |